Weather History for KGUP - April, 2013

Change the Weather History Date:

Saturday, April 27, 2013

  Actual Average Record
Temperature  
Mean Temperature 47 °F -  
Max Temperature 72 °F 65 °F 82 °F (1992)
Min Temperature 23 °F 28 °F 14 °F (1984)
Degree Days  
Heating Degree Days 18    
Moisture  
Dew Point 4 °F    
Average Humidity 19    
Maximum Humidity 37    
Minimum Humidity 8    
Precipitation  
Precipitation 0.00 in - - ()
Sea Level Pressure  
Sea Level Pressure 30.07 in    
Wind  
Wind Speed 4 mph (NE)    
Max Wind Speed 14 mph    
Max Gust Speed 18 mph    
Visibility 10 miles    
Events      
Averages and records for this station are not official NWS values.
T = Trace of Precipitation, MM = Missing Value Source: NWS Daily Summary

Daily Weather History Graph

Daily Weather History Graph

Search for Another Location

Airport or City:

Trip Planner

Search our weather history database for the weather conditions in past years. The results will help you decide how hot, cold, wet, or windy it might be!

Date:

Astronomy

Apr. 27, 2013 Rise Set
Actual Time 6:27 AM MDT 7:58 PM MDT
Civil Twilight 6:00 AM MDT 8:25 PM MDT
Nautical Twilight 5:28 AM MDT 8:58 PM MDT
Astronomical Twilight 4:54 AM MDT 9:32 PM MDT
Moon 10:27 PM MDT (4/27) 7:52 AM MDT (4/27)
Length of Visible Light 14h 25m
Length of Day
13h 30m
Waning Gibbous, 95% of the Moon is Illuminated
Apr 27
Waning Gibbous
May 2
Last Quarter
May 9
New
May 17
First Quarter
May 24
Full

Hourly Weather History & Observations

Time (MDT) Temp. Windchill Dew Point Humidity Pressure Visibility Wind Dir Wind Speed Gust Speed Precip Events Conditions
12:53 AM 28.9 °F 23.9 °F -2.0 °F 26% 30.14 in 10.0 mi East 4.6 mph - N/A   Clear
1:53 AM 30.0 °F - 1.9 °F 30% 30.13 in 10.0 mi Calm Calm - N/A   Clear
2:53 AM 26.1 °F - -0.0 °F 32% 30.12 in 10.0 mi Calm Calm - N/A   Clear
3:53 AM 24.1 °F - -2.0 °F 32% 30.15 in 10.0 mi Calm Calm - N/A   Clear
4:53 AM 26.1 °F 21.9 °F 1.9 °F 35% 30.16 in 10.0 mi ENE 3.5 mph - N/A   Clear
5:53 AM 26.1 °F - 1.9 °F 35% 30.16 in 10.0 mi Calm Calm - N/A   Clear
6:53 AM 23.0 °F - -0.0 °F 37% 30.19 in 10.0 mi Calm Calm - N/A   Clear
7:53 AM 35.1 °F - 5.0 °F 28% 30.16 in 10.0 mi Calm Calm - N/A   Clear
8:53 AM 48.0 °F - 7.0 °F 19% 30.15 in 10.0 mi Calm Calm - N/A   Clear
9:53 AM 55.0 °F - 7.0 °F 15% 30.11 in 10.0 mi Calm Calm - N/A   Clear
10:53 AM 63.0 °F - 5.0 °F 10% 30.09 in 10.0 mi Calm Calm - N/A   Clear
11:53 AM 68.0 °F - 6.1 °F 9% 30.09 in 10.0 mi WNW 8.1 mph - N/A   Clear
12:53 PM 68.0 °F - 6.1 °F 9% 30.08 in 10.0 mi SW 10.4 mph - N/A   Clear
1:53 PM 69.1 °F - 5.0 °F 8% 30.04 in 10.0 mi WNW 9.2 mph - N/A   Clear
2:53 PM 71.1 °F - 5.0 °F 8% 30.04 in 10.0 mi NE 11.5 mph - N/A   Clear
3:53 PM 71.1 °F - 6.1 °F 8% 30.02 in 10.0 mi NE 9.2 mph 18.4 mph N/A   Clear
4:53 PM 70.0 °F - 6.1 °F 8% 30.00 in 10.0 mi Variable 3.5 mph - N/A   Clear
5:53 PM 70.0 °F - 6.1 °F 8% 30.00 in 10.0 mi NE 11.5 mph 18.4 mph N/A   Clear
6:53 PM 68.0 °F - 5.0 °F 8% 30.03 in 10.0 mi NNE 13.8 mph - N/A   Clear
7:53 PM 62.1 °F - 5.0 °F 10% 29.99 in 10.0 mi NNE 10.4 mph - N/A   Clear
8:53 PM 53.1 °F - 3.0 °F 13% 29.98 in 10.0 mi NE 5.8 mph - N/A   Clear
9:53 PM 48.0 °F - 3.9 °F 16% 29.98 in 10.0 mi East 3.5 mph - N/A   Clear
10:53 PM 42.1 °F - 3.9 °F 21% 29.97 in 10.0 mi Calm Calm - N/A   Clear
11:53 PM 37.0 °F - 3.0 °F 24% 29.97 in 10.0 mi Calm Calm - N/A   Clear